Showing default

ELSA-D CLIENT, 51288

Orbit data source: Space-Track

ELSA-D CLIENT, 51288 is a Japanese payload satellite in SSO that was launched on Mon, 22 Mar 2021 UTC via a SOYUZ-2-1A launch vehicle from the Tyuratam Missile And Space Complex (TTMTR). Payload-class satellites include a variety of spacecraft equipped with specific instruments for various scientific and technological missions. These include communications satellites like Starlink; space stations such as the ISS; scientific satellites like the Hubble; Earth observation satellites from companies like Planet Labs, Umbra, and HawkEye 360; GPS; miniature CubeSats for education and research; and military/defense satellites.

Loading next visibility...
Identifier
51288, 2021-022AQ
Orbit
SSO
Country
Flag of JPJP / JPN
Related business
Manufacturer
SSTL (Astrium)
Mission
Non-operational Commercial Technology
Bus & Motor
SSTL-42, Unknown motor
Mass
17 kg wet, 17 kg dry
Launch date (UTC)
2021-03-22 (5 years ago)
Launch vehicle
SOYUZ-2-1A
Launch site
Tyuratam Missile And Space Complex (TTMTR)
Object type
Payload
Rocket body
Debris
Shape & HBR
Box, 1.0 m
Radar Cross Section
0.223 m², Medium (>0.1 m² and < 1m²)

Expand to show TLE details & history
Last TLE update: 1 day ago

TLE from 1 day ago
0 ELSA-D CLIENT
1 51288U 21022AQ  25348.68917944  .00099359  00000-0  79340-3 0  9992
2 51288  97.4197 261.8403 0004190  26.6851 333.4627 15.70810165216088
Epoch: 2025-12-14T16:32Z
TLE epoch observation values (Epoch: 2025-12-14T16:32:25.103Z)
Latitude
0.00003°
Longitude
-69.86279°
Altitude
357.214 km
Speed
7.696 km/s
True Right ascension
17h 27m 21s
True Declination
0° 00' 00"
Sunlit
Object was in daylight at epoch
Visualization orbit readout
Latitude
Unknown
Longitude
Unknown
Altitude
Unknown
Speed
Unknown
Apparent Right ascension
Unknown
Apparent Declination
Unknown
Sunlit
N/A
Visualization observer readout
Local Sidereal Time
15:08:17
Azimuth
Unknown
Elevation
Unknown
Doppler factor
Unknown
Orbital elements
Apogee altitude
356.3 km
Perigee altitude
350.659 km
Semi-major axis
6,731.616 km
Eccentricity
0.00042
Inclination
97.4197°
RAAN
261.8403°
Arg. of periapsis
26.6851°
True anomaly
333.44124°
Mean anomaly
333.4627°
Eccentric anomaly
333.45197°
Mean motion
3.92974 °/min
Orbital period
91.61 mins
BSTAR
0.0007934
Loading maneuver chart data...
Computing Atmospheric mass density...
Loading historical data...
Loading historical data...
Loading historical data...
Loading historical data...
Loading historical data...
Loading historical data...
Loading historical data...

Documentation

Showing up to 5 results
|